[[{"header":{"parameterUnit":"m.s-1","parameterCategory":1,"la1":30.2991,"la2":30.254,"lo1":-89.0895,"lo2":-89.0444,"dy":0.0017,"dx":0.0017,"nx":28,"ny":28,"refTime":"2024-04-10T09:00:00:Z","depth":0,"parameterNumber":2,"parameterNumberName":"U-component_of_WINDS"},"data":[0,0,0,0,0,0,0,0,0,0,0,0,0,0,0,0,0,0,0,0,0,0,0,0,0,0,0,0,0,0,0,0,0,0,0,0,0,0,0,0,0,0,0,0,0,0,0,0,0,0,0,0,0,0,0,0,0,0,4.6003,4.6004,0,4.614,4.6142,4.6143,4.6118,4.6116,4.6113,4.6111,4.6251,4.6257,4.6263,0,0,0,0,0,0,0,0,0,0,0,0,0,4.572,4.5726,4.6003,4.6005,4.6006,4.614,4.6142,4.6144,4.6118,4.6115,4.6112,4.611,4.6249,4.6256,4.6264,0,0,0,0,0,0,0,0,0,0,0,0,0,4.5849,4.5727,4.6003,4.601,4.6012,4.6139,4.6142,4.6144,4.6119,4.6115,4.6112,4.6108,4.6247,4.6256,4.6265,4.6394,0,0,4.6292,4.6296,0,0,0,0,0,0,0,0,4.5842,4.5859,4.6007,4.601,4.6012,4.6108,4.6094,4.6228,4.612,4.6078,4.6111,4.6106,4.6207,4.6219,4.6252,4.64,4.6406,4.6293,4.6298,4.6302,4.6305,0,0,0,0,0,0,0,4.5833,4.5853,4.6057,4.6009,4.6012,4.6007,4.6021,4.6119,4.6161,4.6082,4.608,4.6097,4.6207,4.6244,4.6256,4.6408,4.6293,4.6301,4.6306,4.631,4.667,4.6674,0,0,0,0,0,0,4.5821,4.5846,4.6053,4.6061,4.5916,4.6015,4.6031,4.6081,4.616,4.6169,4.61,4.6095,4.623,4.6245,4.626,4.6418,4.6302,4.6311,4.6316,4.6666,4.6671,4.6676,0,0,0,0,0,0,4.5815,4.584,4.6047,4.5953,4.5979,4.6023,4.608,4.6086,4.6122,4.6174,4.6181,4.6129,4.6228,4.6248,4.6361,4.6422,4.6315,4.6323,4.6661,4.6668,4.6674,4.6732,0,0,0,0,0,0,4.5807,4.5838,4.5887,4.5955,4.5984,4.6145,4.6084,4.6091,4.6138,4.6133,4.6204,4.6212,4.6227,4.6348,4.637,4.6433,4.633,4.6656,4.6664,4.6672,4.6725,4.674,4.6752,0,0,0,0,0,4.5797,4.5898,4.589,4.5915,4.6047,4.6149,4.6166,4.6181,4.6143,4.6193,4.6226,4.6209,4.6412,4.636,4.6384,4.6451,4.6652,4.6662,4.6671,4.6719,4.6737,4.6752,0,0,0,0,0,0,4.5836,4.5907,4.5898,4.6024,4.6081,4.6144,4.6208,4.6199,4.6268,4.6261,4.6276,4.6293,4.6408,4.6441,4.6381,4.6581,4.6527,4.6542,4.6555,4.6572,4.6586,4.6575,4.6337,0,0,0,0,0,4.5859,4.5936,4.5994,4.6099,4.6128,4.6163,4.6208,4.6215,4.6274,4.6298,4.634,4.6399,4.6476,4.6526,4.6599,4.673,4.6746,4.6788,4.6802,4.6813,4.6825,4.6898,4.6918,4.6707,4.6707,4.6706,0,0,4.5907,4.5956,4.6003,4.6108,4.6152,4.6232,4.6183,4.6269,4.6329,4.6311,4.6421,4.6454,4.6521,4.6644,4.67,4.6674,4.6887,4.6825,4.6833,4.684,4.691,4.693,4.6948,4.6713,4.6712,4.6711,0,0,4.6036,4.608,4.6173,4.6219,4.6288,4.6311,4.6334,4.64,4.6421,4.6532,4.652,4.6592,4.6724,4.6772,4.6814,4.6963,4.6951,4.6987,4.7058,4.7129,4.7146,4.7161,4.7215,4.7234,4.6999,4.7,4.7,0,4.6088,4.6207,4.6222,4.631,4.6357,4.6345,4.644,4.6484,4.6573,4.6606,4.6576,4.6743,4.6787,4.6922,4.6958,4.6992,4.7019,4.6979,4.7142,4.7157,4.7171,4.7223,4.7243,4.7004,4.7003,4.7003,4.7002,0,4.6267,4.6351,4.6417,4.6505,4.6559,4.665,4.6679,4.6732,4.6735,4.6762,4.6875,4.6928,4.7013,4.7045,4.7048,4.7181,4.7164,4.7138,4.7084,4.7195,4.7244,4.7264,4.7009,4.7008,4.7007,4.7006,0,0,4.6423,4.6518,4.6543,4.6583,4.6659,4.6724,4.6815,4.6898,4.6944,4.7006,4.7084,4.7197,4.7174,4.7221,4.723,4.7293,4.7409,4.726,4.7262,4.7286,4.756,4.7579,4.7601,4.7402,4.7405,4.7409,4.7555,0,4.6559,4.6719,4.6736,4.688,4.6958,4.6949,4.7028,4.7084,4.7112,4.7182,4.7213,4.7293,4.7257,4.7286,4.7347,4.7382,4.7464,4.7372,4.7474,4.7478,4.7457,4.7627,4.7647,4.7782,4.7574,4.7577,4.7579,0,4.6739,4.6808,4.6959,4.7026,4.7059,4.713,4.7208,4.7276,4.7339,4.7355,4.741,4.7411,4.7506,4.7449,4.758,4.7517,4.756,4.7584,4.759,4.7599,4.7535,4.7642,4.7825,4.7846,4.761,4.7607,4.7605,0,4.6838,4.6968,4.7076,4.711,4.7191,4.7241,4.7277,4.7337,4.7386,4.7455,4.7488,4.7567,4.761,4.7672,4.7695,4.7651,4.7825,4.777,4.7842,4.7841,4.7878,4.7876,4.8072,4.7906,4.7906,4.7906,4.7905,0,4.6988,4.7082,4.7122,4.7188,4.7292,4.7311,4.7415,4.7448,4.7502,4.7575,4.7573,4.7642,4.7668,4.7741,4.776,4.7867,4.7886,4.7902,4.7906,4.7902,4.79,4.7931,4.7922,4.7911,4.791,4.7909,4.7908,0,4.7116,4.7147,4.7264,4.7331,4.735,4.7424,4.7482,4.7546,4.7574,4.7667,4.7689,4.7733,4.7819,4.7849,4.7953,4.7966,4.809,4.8086,4.8069,4.807,4.814,4.8133,4.8362,4.8393,4.8207,4.8209,4.821,0,4.721,4.7282,4.7357,4.7406,4.7444,4.7522,4.7573,4.7595,4.7648,4.7727,4.7783,4.7869,4.7939,4.8078,4.8119,4.8199,4.8197,4.8272,4.8209,4.8204,4.8199,4.8194,4.8202,4.8283,4.8285,4.8287,4.8288,0,4.7374,4.7386,4.7459,4.7538,4.7599,4.7663,4.7724,4.7764,4.7796,4.7856,4.7944,4.7999,4.8106,4.8192,4.8275,4.8312,4.8307,4.8308,4.8329,4.8326,4.8313,4.8322,4.8101,4.8302,4.8301,4.83,4.8299,4.8299,4.7488,4.7551,4.7615,4.7697,4.7745,4.7803,4.7868,4.7904,4.7978,4.8067,4.8076,4.8172,4.8236,4.8346,4.8388,4.8464,4.8443,4.8473,4.8481,4.8488,4.8493,4.8301,4.8479,4.8479,4.8478,4.8478,4.8478,0,4.7651,4.7692,4.7767,4.7854,4.7919,4.7908,4.7976,4.8031,4.8115,4.8175,4.8244,4.8347,4.8431,4.8479,4.8563,4.8615,4.8614,4.8636,4.8633,4.8642,4.8507,4.8481,4.8636,4.8635,4.8635,4.8635,4.8635,4.8635,4.7744,4.7852,4.7872,4.8004,4.8044,4.8138,4.8178,4.8232,4.8279,4.8394,4.8464,4.8495,4.8551,4.8639,4.8716,4.8728,4.876,4.8784,4.8794,4.8667,4.8651,4.8635,4.8611,4.879,4.8791,4.8923,4.8924,4.8925]},{"header":{"parameterUnit":"m.s-1","parameterCategory":1,"la1":30.2991,"la2":30.254,"lo1":-89.0895,"lo2":-89.0444,"dy":0.0017,"dx":0.0017,"nx":28,"ny":28,"refTime":"2024-04-10T09:00:00:Z","depth":0,"parameterNumber":3,"parameterNumberName":"V-component_of_WINDS"},"data":[0,0,0,0,0,0,0,0,0,0,0,0,0,0,0,0,0,0,0,0,0,0,0,0,0,0,0,0,0,0,0,0,0,0,0,0,0,0,0,0,0,0,0,0,0,0,0,0,0,0,0,0,0,0,0,0,0,0,-4.477,-4.4771,0,-4.4941,-4.4943,-4.4945,-4.493,-4.4927,-4.4925,-4.4922,-4.5096,-4.5103,-4.511,0,0,0,0,0,0,0,0,0,0,0,0,0,-4.443,-4.4436,-4.4769,-4.4772,-4.4774,-4.494,-4.4943,-4.4945,-4.493,-4.4927,-4.4924,-4.4921,-4.5094,-4.5102,-4.5111,0,0,0,0,0,0,0,0,0,0,0,0,0,-4.4587,-4.4438,-4.4769,-4.4787,-4.479,-4.494,-4.4943,-4.4946,-4.4931,-4.4927,-4.4923,-4.492,-4.5091,-4.5102,-4.5112,-4.5256,0,0,-4.5144,-4.5149,0,0,0,0,0,0,0,0,-4.4578,-4.4599,-4.4782,-4.4786,-4.479,-4.491,-4.4887,-4.505,-4.4932,-4.4877,-4.4922,-4.4918,-4.5037,-4.5052,-4.5093,-4.5264,-4.5271,-4.5145,-4.5152,-4.5156,-4.5159,0,0,0,0,0,0,0,-4.4567,-4.4592,-4.4837,-4.4784,-4.4789,-4.4786,-4.4804,-4.4918,-4.4977,-4.4882,-4.4881,-4.4902,-4.5039,-4.5083,-4.5097,-4.5274,-4.5145,-4.5154,-4.5161,-4.5165,-4.5572,-4.5576,0,0,0,0,0,0,-4.4552,-4.4583,-4.4832,-4.4842,-4.4672,-4.4795,-4.4815,-4.4875,-4.4976,-4.4988,-4.4905,-4.49,-4.5067,-4.5084,-4.5103,-4.5278,-4.5156,-4.5166,-4.5172,-4.5568,-4.5573,-4.5578,0,0,0,0,0,0,-4.4545,-4.4574,-4.4825,-4.4713,-4.4744,-4.4805,-4.4873,-4.4881,-4.4925,-4.4993,-4.5004,-4.4939,-4.5064,-4.5088,-4.5218,-4.5284,-4.5171,-4.5181,-4.5562,-4.5569,-4.5575,-4.563,0,0,0,0,0,0,-4.4535,-4.4572,-4.4627,-4.4714,-4.475,-4.4937,-4.4877,-4.4887,-4.4943,-4.4939,-4.5028,-4.5039,-4.5063,-4.5202,-4.5229,-4.5297,-4.5189,-4.5557,-4.5565,-4.5573,-4.5622,-4.5637,-4.565,0,0,0,0,0,-4.4523,-4.4635,-4.463,-4.466,-4.482,-4.4941,-4.4962,-4.4988,-4.4948,-4.5004,-4.5049,-4.5036,-4.5273,-4.5216,-4.5245,-4.5317,-4.5553,-4.5563,-4.5573,-4.5616,-4.5634,-4.565,0,0,0,0,0,0,-4.4554,-4.4647,-4.4642,-4.4786,-4.4856,-4.4938,-4.501,-4.5006,-4.5088,-4.5081,-4.5109,-4.5129,-4.526,-4.5302,-4.5237,-4.5462,-4.5407,-4.5424,-4.543,-4.5448,-4.5462,-4.5449,-4.5198,0,0,0,0,0,-4.4578,-4.4668,-4.4744,-4.4863,-4.4899,-4.4949,-4.5002,-4.5016,-4.5089,-4.5119,-4.5173,-4.5244,-4.5335,-4.5394,-4.5481,-4.5628,-4.5648,-4.5692,-4.5706,-4.5718,-4.5731,-4.5813,-4.5834,-4.5611,-4.5611,-4.561,0,0,-4.4627,-4.4689,-4.4744,-4.4871,-4.4927,-4.502,-4.4973,-4.5074,-4.5143,-4.5134,-4.526,-4.5302,-4.5384,-4.5524,-4.5588,-4.5562,-4.5798,-4.573,-4.5739,-4.5747,-4.5826,-4.5847,-4.5866,-4.5617,-4.5616,-4.5615,0,0,-4.4765,-4.4821,-4.4927,-4.4984,-4.507,-4.5102,-4.5127,-4.5211,-4.5239,-4.5367,-4.5362,-4.5445,-4.56,-4.5659,-4.5709,-4.587,-4.5862,-4.5898,-4.5971,-4.6051,-4.6068,-4.6084,-4.6142,-4.6163,-4.5911,-4.5911,-4.5912,0,-4.4816,-4.4956,-4.4982,-4.5084,-4.514,-4.5136,-4.5244,-4.5298,-4.5407,-4.5446,-4.5416,-4.5612,-4.5666,-4.582,-4.586,-4.59,-4.593,-4.5888,-4.6064,-4.608,-4.6095,-4.6151,-4.6172,-4.5915,-4.5915,-4.5914,-4.5914,0,-4.5015,-4.5112,-4.5187,-4.5294,-4.5359,-4.5463,-4.5504,-4.5566,-4.5575,-4.561,-4.574,-4.5806,-4.5907,-4.5944,-4.5953,-4.61,-4.6081,-4.6057,-4.6003,-4.612,-4.6173,-4.6194,-4.5921,-4.5919,-4.5918,-4.5917,0,0,-4.5177,-4.5297,-4.5324,-4.5372,-4.5467,-4.5543,-4.5647,-4.5746,-4.5799,-4.5875,-4.5963,-4.6095,-4.6074,-4.6131,-4.6146,-4.6216,-4.6341,-4.6184,-4.6186,-4.6211,-4.6507,-4.6525,-4.6549,-4.6336,-4.634,-4.6343,-4.65,0,-4.5325,-4.5509,-4.5536,-4.5699,-4.579,-4.5788,-4.5879,-4.5947,-4.5983,-4.6065,-4.6105,-4.6198,-4.6162,-4.6197,-4.6266,-4.6311,-4.64,-4.63,-4.6418,-4.6422,-4.6398,-4.6577,-4.6596,-4.6741,-4.6521,-4.6525,-4.6527,0,-4.5522,-4.5604,-4.5776,-4.5859,-4.5898,-4.5979,-4.6073,-4.6151,-4.6228,-4.625,-4.6314,-4.6321,-4.6429,-4.637,-4.652,-4.6451,-4.6501,-4.653,-4.6537,-4.6549,-4.6482,-4.6595,-4.6788,-4.681,-4.656,-4.6557,-4.6555,0,-4.5623,-4.5777,-4.59,-4.5942,-4.6041,-4.6098,-4.6143,-4.6216,-4.6274,-4.6356,-4.6394,-4.6486,-4.6537,-4.6609,-4.6641,-4.6595,-4.679,-4.6733,-4.6811,-4.681,-4.6852,-4.6849,-4.7057,-4.6883,-4.6883,-4.6882,-4.6882,0,-4.5786,-4.5892,-4.5947,-4.6023,-4.6142,-4.6171,-4.6287,-4.6329,-4.6395,-4.6479,-4.6483,-4.6562,-4.6599,-4.6684,-4.671,-4.683,-4.6853,-4.6874,-4.688,-4.6874,-4.6871,-4.6907,-4.6898,-4.6888,-4.6887,-4.6886,-4.6885,0,-4.592,-4.5961,-4.6095,-4.6179,-4.6202,-4.6286,-4.6358,-4.6432,-4.6467,-4.6574,-4.66,-4.6657,-4.6757,-4.6796,-4.6918,-4.6935,-4.7075,-4.7072,-4.7049,-4.705,-4.7126,-4.7119,-4.7365,-4.7399,-4.7202,-4.7204,-4.7206,0,-4.6021,-4.6103,-4.6195,-4.6252,-4.6298,-4.639,-4.6449,-4.6481,-4.6543,-4.6638,-4.67,-4.68,-4.6882,-4.7042,-4.7093,-4.7187,-4.7187,-4.7267,-4.7201,-4.7193,-4.7189,-4.7184,-4.7193,-4.7279,-4.7281,-4.7283,-4.7284,0,-4.6197,-4.6213,-4.6299,-4.6393,-4.6464,-4.6539,-4.6612,-4.6659,-4.6702,-4.6771,-4.6874,-4.6937,-4.7062,-4.7162,-4.7259,-4.7304,-4.7302,-4.7304,-4.7328,-4.7323,-4.7307,-4.7317,-4.7082,-4.7299,-4.7297,-4.7296,-4.7295,-4.7295,-4.6318,-4.6391,-4.6468,-4.6563,-4.6622,-4.669,-4.6764,-4.6809,-4.6895,-4.7,-4.7014,-4.7124,-4.72,-4.7329,-4.7379,-4.7466,-4.7445,-4.7478,-4.7487,-4.7495,-4.75,-4.7292,-4.7483,-4.7483,-4.7483,-4.7482,-4.7482,0,-4.6495,-4.6544,-4.6632,-4.6734,-4.681,-4.6802,-4.6882,-4.6946,-4.7043,-4.7114,-4.7195,-4.7313,-4.741,-4.7469,-4.7567,-4.7625,-4.7626,-4.7649,-4.7646,-4.7656,-4.7513,-4.7484,-4.7647,-4.7646,-4.7646,-4.7646,-4.7646,-4.7646,-4.6596,-4.6718,-4.6744,-4.6896,-4.6945,-4.7053,-4.71,-4.7163,-4.722,-4.7353,-4.7433,-4.7471,-4.7538,-4.764,-4.7729,-4.7744,-4.778,-4.7805,-4.7818,-4.7683,-4.7666,-4.765,-4.7623,-4.7812,-4.7812,-4.7955,-4.7956,-4.7957]}]]